Home   Weather   Firenze   Past weeks

Flag for Italy Past Weather in Firenze, Italy — Yesterday and Last 2 Weeks

Now
72 °F

Passing clouds.


Feels Like: 72 °F
Forecast: 63 / 78 °F
Wind: 7 mph from South

Location: Florence / Peretola

Current Time: Sep 24, 2018 at 1:54:34 am

Latest Report: Sep 24, 2018 at 1:20 am


Visibility: N/A

Pressure: 29.95 "Hg

Humidity: 78%

Dew Point: 64 °F

Location of FirenzeLocation

Past Weather in Firenze — Graph

°F

Firenze Temperature Yesterday

Maximum temperature yesterday: 86 °F (at 2:20 pm)
Minimum temperature yesterday: 64 °F (at 6:50 am)
Average temperature yesterday: 76 °F

High & Low Weather Summary for the Past Weeks

 TemperatureHumidityPressure
High93 °F (Sep 11, 2:50 pm)100% (Sep 14, 5:20 am)30.27 "Hg (Sep 14, 5:20 am)
Low61 °F (Sep 9, 6:50 am)21% (Sep 11, 2:50 pm)29.92 "Hg (Sep 21, 3:20 pm)
Average75 °F64%30.08 "Hg
* Reported Sep 9 12:20 am — Sep 24 12:20 am, Firenze. Weather by CustomWeather, © 2018

Note: Actual official high and low records may vary slightly from our data, if they occured in-between our weather recording intervals... More about our weather records

Advertising

Firenze Weather History for the Previous 24 Hours

Scroll right to see more
 ConditionsComfort  
Time TempWeatherWind HumidityBarometerVisibility
12:20 am
Mon, Sep 24
73 °FPassing clouds.6 mph74%29.98 "HgN/A
11:50 pm
Sun, Sep 23
73 °FPassing clouds.7 mph74%30.01 "HgN/A
11:20 pm73 °FPassing clouds.6 mph74%30.01 "HgN/A
10:50 pm75 °FPassing clouds.6 mph74%30.01 "HgN/A
10:20 pm75 °FPassing clouds.8 mph74%30.01 "HgN/A
9:50 pm77 °FPassing clouds.10 mph69%30.01 "HgN/A
9:20 pm77 °FPassing clouds.10 mph69%30.01 "HgN/A
8:50 pm79 °FPassing clouds.10 mph65%30.01 "HgN/A
8:20 pm79 °FPassing clouds.10 mph65%30.01 "HgN/A
7:50 pm79 °FPassing clouds.13 mph70%30.01 "HgN/A
7:20 pm82 °FPassing clouds.12 mph58%30.01 "HgN/A
6:50 pm84 °FPartly sunny.9 mph51%29.98 "HgN/A
6:20 pm84 °FPartly sunny.6 mph51%29.98 "HgN/A
5:50 pm84 °FScattered clouds.9 mph51%30.01 "HgN/A
5:20 pm84 °FScattered clouds.7 mph51%30.01 "HgN/A
4:50 pm86 °FScattered clouds.8 mph49%30.01 "HgN/A
4:20 pm86 °FScattered clouds.6 mph49%30.01 "HgN/A
3:50 pm86 °FScattered clouds.6 mph49%30.04 "HgN/A
3:20 pm84 °FPassing clouds.6 mph48%30.04 "HgN/A
2:50 pm86 °FPassing clouds.6 mph43%30.04 "HgN/A
2:20 pm86 °FPassing clouds.10 mph46%30.07 "HgN/A
1:50 pm84 °FPassing clouds.3 mph51%30.07 "HgN/A
1:20 pm84 °FPassing clouds.3 mph51%30.09 "HgN/A
12:50 pm82 °FPassing clouds.5 mph55%30.09 "HgN/A
12:20 pm81 °FPassing clouds.5 mph58%30.09 "HgN/A
11:50 am81 °FScattered clouds.5 mph58%30.09 "HgN/A
11:20 am77 °FPassing clouds.2 mph65%30.09 "HgN/A
10:50 am79 °FScattered clouds.5 mph65%30.09 "HgN/A
10:20 am77 °FPassing clouds.3 mph69%30.09 "HgN/A
9:50 am73 °FScattered clouds.1 mph78%30.09 "HgN/A
9:20 am73 °FScattered clouds.1 mph78%30.09 "HgN/A
8:50 am70 °FPassing clouds.1 mph83%30.09 "HgN/A
8:20 am66 °FScattered clouds.1 mph94%30.09 "HgN/A
7:50 am66 °FScattered clouds.1 mph94%30.09 "Hg5 mi
7:20 am66 °FScattered clouds.1 mph94%30.07 "Hg5 mi
6:50 am64 °FPassing clouds.2 mph94%30.07 "HgN/A
6:20 am66 °FPassing clouds.1 mph100%30.07 "HgN/A
5:50 am66 °FPassing clouds.1 mph100%30.07 "HgN/A
5:20 am66 °FPassing clouds.1 mph94%30.07 "HgN/A
4:50 am68 °FPassing clouds.3 mph88%30.07 "HgN/A
4:20 am68 °FClear.3 mph94%30.07 "Hg10 mi
3:50 am68 °FClear.6 mph94%30.07 "Hg10 mi
3:20 am68 °FClear.5 mph88%30.07 "Hg10 mi
2:50 am70 °FClear.3 mph83%30.07 "Hg10 mi
1:50 am70 °FPassing clouds.5 mph88%30.07 "HgN/A
1:20 am72 °FPassing clouds.3 mph83%30.07 "HgN/A
Weather by CustomWeather, © 2018

See weather overview